| time (UTC) | temp F | wind direction | speed MPH | gust MPH | rain 1hr in | rain 24hr in | rain mn in | humidity % | barometer mb |
| 20260505230004 | 52 | 259 | 0.0 | 2.0 | 0.00 | 0.28 | 0.00 | 95 | 1013.2 |
| 20260505224536 | 51 | 246 | 0.0 | 1.0 | 0.00 | 0.28 | 0.00 | 95 | 1013.2 |
| 20260505223006 | 52 | 246 | 0.0 | 1.0 | 0.00 | 0.28 | 0.00 | 95 | 1013.2 |
| 20260505221539 | 52 | 246 | 0.0 | 0.0 | 0.00 | 0.28 | 0.00 | 95 | 1013.3 |
| 20260505220141 | 52 | 246 | 0.0 | 0.0 | 0.00 | 0.28 | 0.00 | 95 | 1013.4 |
| 20260505214531 | 52 | 246 | 0.0 | 2.0 | 0.00 | 0.28 | 0.28 | 95 | 1013.5 |
| 20260505213057 | 52 | 143 | 0.0 | 1.0 | 0.00 | 0.28 | 0.28 | 95 | 1013.4 |
| 20260505211534 | 52 | 143 | 0.0 | 1.0 | 0.00 | 0.28 | 0.28 | 94 | 1013.6 |
| 20260505210010 | 52 | 143 | 0.0 | 1.0 | 0.00 | 0.28 | 0.28 | 94 | 1013.7 |
| 20260505204539 | 52 | 143 | 0.0 | 0.0 | 0.00 | 0.28 | 0.28 | 94 | 1013.8 |
| 20260505203009 | 52 | 132 | 0.0 | 1.0 | 0.00 | 0.28 | 0.28 | 94 | 1013.8 |
| 20260505201542 | 52 | 132 | 0.0 | 1.0 | 0.02 | 0.28 | 0.28 | 94 | 1013.7 |
| 20260505200025 | 52 | 266 | 0.0 | 1.0 | 0.02 | 0.28 | 0.28 | 94 | 1013.7 |
| 20260505194603 | 52 | 266 | 0.0 | 0.0 | 0.05 | 0.28 | 0.28 | 94 | 1013.7 |
| 20260505193023 | 52 | 266 | 0.0 | 2.0 | 0.06 | 0.28 | 0.28 | 94 | 1013.7 |
| 20260505191556 | 53 | 245 | 0.0 | 1.0 | 0.07 | 0.26 | 0.26 | 94 | 1013.7 |
| 20260505190031 | 53 | 212 | 0.0 | 1.0 | 0.06 | 0.25 | 0.25 | 93 | 1013.7 |
| 20260505184557 | 53 | 160 | 0.0 | 2.0 | 0.04 | 0.23 | 0.23 | 93 | 1013.5 |
| 20260505183040 | 53 | 208 | 0.0 | 2.0 | 0.03 | 0.21 | 0.21 | 93 | 1013.3 |
| 20260505181557 | 53 | 246 | 0.0 | 3.0 | 0.02 | 0.19 | 0.19 | 93 | 1013.2 |
| 20260505180026 | 53 | 36 | 0.0 | 1.0 | 0.02 | 0.19 | 0.19 | 93 | 1013.2 |
| 20260505174559 | 53 | 36 | 0.0 | 0.0 | 0.02 | 0.19 | 0.19 | 92 | 1013.1 |
| 20260505173037 | 53 | 36 | 0.0 | 1.0 | 0.02 | 0.18 | 0.18 | 92 | 1013.2 |
| 20260505171601 | 53 | 36 | 0.0 | 1.0 | 0.03 | 0.17 | 0.17 | 92 | 1013.2 |
| 20260505170035 | 53 | 36 | 0.0 | 0.0 | 0.03 | 0.17 | 0.17 | 92 | 1013.2 |
| 20260505164509 | 53 | 36 | 0.0 | 1.0 | 0.02 | 0.17 | 0.17 | 91 | 1013.3 |
| 20260505163041 | 53 | 36 | 0.0 | 1.0 | 0.02 | 0.16 | 0.16 | 91 | 1013.4 |
| 20260505161512 | 53 | 75 | 0.0 | 1.0 | 0.00 | 0.14 | 0.14 | 91 | 1013.5 |
| 20260505153052 | 53 | 75 | 0.0 | 1.0 | 0.00 | 0.14 | 0.14 | 90 | 1013.6 |
| 20260505151516 | 54 | 291 | 0.0 | 2.0 | 0.00 | 0.14 | 0.14 | 90 | 1013.7 |
| 20260505124551 | 55 | 243 | 1.0 | 4.0 | 0.02 | 0.13 | 0.13 | 88 | 1014.3 |
| 20260505123030 | 55 | 281 | 2.0 | 4.0 | 0.06 | 0.13 | 0.13 | 88 | 1014.3 |
| 20260505121508 | 55 | 300 | 1.0 | 3.0 | 0.09 | 0.13 | 0.13 | 87 | 1014.4 |
| 20260505120051 | 55 | 251 | 0.0 | 2.0 | 0.10 | 0.12 | 0.12 | 85 | 1014.5 |
| 20260505114636 | 55 | 244 | 0.0 | 1.0 | 0.10 | 0.11 | 0.11 | 87 | 1014.5 |
| 20260505113030 | 55 | 66 | 1.0 | 5.0 | 0.06 | 0.06 | 0.06 | 86 | 1014.6 |
| 20260505111513 | 57 | 185 | 1.0 | 5.0 | 0.04 | 0.04 | 0.04 | 84 | 1014.6 |
| 20260505110106 | 58 | 296 | 3.0 | 6.0 | 0.02 | 0.02 | 0.02 | 82 | 1014.5 |
| 20260505101559 | 59 | 264 | 2.0 | 4.0 | 0.00 | 0.00 | 0.00 | 77 | 1014.7 |
| 20260505100041 | 58 | 300 | 1.0 | 5.0 | 0.00 | 0.00 | 0.00 | 78 | 1014.7 |
| 20260505094530 | 58 | 219 | 2.0 | 5.0 | 0.00 | 0.00 | 0.00 | 78 | 1014.8 |
| 20260505093048 | 59 | 283 | 0.0 | 3.0 | 0.00 | 0.00 | 0.00 | 79 | 1014.6 |
| 20260505091528 | 59 | 213 | 2.0 | 6.0 | 0.00 | 0.00 | 0.00 | 76 | 1014.8 |
| 20260505090013 | 60 | 205 | 3.0 | 7.0 | 0.00 | 0.00 | 0.00 | 73 | 1014.7 |
| 20260505084505 | 60 | 278 | 3.0 | 7.0 | 0.00 | 0.00 | 0.00 | 72 | 1014.5 |
| 20260505083047 | 60 | 254 | 2.0 | 4.0 | 0.00 | 0.00 | 0.00 | 72 | 1014.3 |
| 20260505081535 | 59 | 216 | 0.0 | 3.0 | 0.00 | 0.00 | 0.00 | 74 | 1014.3 |
| 20260505080023 | 59 | 288 | 0.0 | 3.0 | 0.00 | 0.00 | 0.00 | 74 | 1014.2 |
| 20260505074600 | 59 | 226 | 2.0 | 4.0 | 0.00 | 0.00 | 0.00 | 74 | 1014.2 |
| 20260505073045 | 59 | 310 | 0.0 | 5.0 | 0.00 | 0.00 | 0.00 | 76 | 1014.2 |
| 20260505071525 | 58 | 302 | 0.0 | 3.0 | 0.00 | 0.00 | 0.00 | 76 | 1014.2 |
| 20260505070015 | 57 | 303 | 1.0 | 3.0 | 0.00 | 0.00 | 0.00 | 75 | 1014.2 |
| 20260505064540 | 57 | 184 | 2.0 | 4.0 | 0.00 | 0.00 | 0.00 | 76 | 1014.2 |
| 20260505063012 | 58 | 241 | 1.0 | 3.0 | 0.00 | 0.00 | 0.00 | 76 | 1014.1 |
| 20260505061544 | 57 | 298 | 0.0 | 1.0 | 0.00 | 0.00 | 0.00 | 79 | 1014.0 |
| 20260505060010 | 55 | 105 | 0.0 | 1.0 | 0.00 | 0.00 | 0.00 | 82 | 1014.0 |
| 20260505054607 | 54 | 91 | 0.0 | 1.0 | 0.00 | 0.00 | 0.00 | 84 | 1013.9 |
| 20260505053031 | 54 | 30 | 0.0 | 1.0 | 0.00 | 0.00 | 0.00 | 81 | 1013.9 |
| 20260505051512 | 54 | 30 | 0.0 | 0.0 | 0.00 | 0.00 | 0.00 | 82 | 1014.0 |
| 20260505041552 | 54 | 30 | 0.0 | 1.0 | 0.00 | 0.00 | 0.00 | 81 | 1014.2 |
| 20260505040021 | 54 | 30 | 0.0 | 1.0 | 0.00 | 0.00 | 0.00 | 81 | 1014.2 |
| 20260505034552 | 54 | 30 | 0.0 | 2.0 | 0.00 | 0.00 | 0.00 | 81 | 1014.2 |
| 20260505033021 | 53 | 108 | 0.0 | 2.0 | 0.00 | 0.00 | 0.00 | 82 | 1014.2 |
| 20260505031606 | 53 | 13 | 1.0 | 1.0 | 0.00 | 0.00 | 0.00 | 84 | 1014.4 |
| 20260505030032 | 53 | 13 | 0.0 | 1.0 | 0.00 | 0.00 | 0.00 | 84 | 1014.5 |
| 20260505024502 | 53 | 26 | 1.0 | 3.0 | 0.00 | 0.00 | 0.00 | 84 | 1014.5 |
| 20260505023037 | 52 | 137 | 0.0 | 1.0 | 0.00 | 0.00 | 0.00 | 85 | 1014.5 |
| 20260505021505 | 53 | 104 | 0.0 | 1.0 | 0.00 | 0.00 | 0.00 | 84 | 1014.7 |
| 20260505020034 | 53 | 336 | 0.0 | 2.0 | 0.00 | 0.00 | 0.00 | 83 | 1014.8 |
| 20260505014609 | 54 | 319 | 0.0 | 0.0 | 0.00 | 0.00 | 0.00 | 81 | 1015.0 |
| 20260505013027 | 55 | 319 | 0.0 | 0.0 | 0.00 | 0.00 | 0.00 | 80 | 1015.1 |
| 20260505011607 | 54 | 319 | 0.0 | 0.0 | 0.00 | 0.00 | 0.00 | 81 | 1015.1 |
| 20260505010031 | 55 | 319 | 0.0 | 0.0 | 0.00 | 0.00 | 0.00 | 80 | 1015.2 |
| 20260505004602 | 55 | 319 | 0.0 | 0.0 | 0.00 | 0.00 | 0.00 | 79 | 1015.4 |
| 20260505003030 | 56 | 319 | 0.0 | 0.0 | 0.00 | 0.00 | 0.00 | 79 | 1015.5 |
| 20260505001601 | 56 | 22 | 0.0 | 0.0 | 0.00 | 0.00 | 0.00 | 78 | 1015.6 |
| 20260505000045 | 57 | 23 | 0.0 | 0.0 | 0.00 | 0.00 | 0.00 | 77 | 1015.8 |
| 20260504234502 | 58 | 23 | 0.0 | 0.0 | 0.00 | 0.00 | 0.00 | 74 | 1015.9 |
| 20260504233050 | 58 | 23 | 0.0 | 2.0 | 0.00 | 0.00 | 0.00 | 73 | 1016.0 |
| 20260504231505 | 58 | 6 | 0.0 | 2.0 | 0.00 | 0.00 | 0.00 | 75 | 1016.2 |